Regional Weather Roundup
Issued by NWS

Home | Current Version | Previous Version | Text Only | Print | Product List | Glossary Off
Versions: 1 2 3 4 5 6 7 8 9 10 11 12 13 14 15 16 17 18 19 20 21 22 23 24 25 26 27 28 29 30 31 32 33 34 35 36 37 38 39 40 41 42 43 44 45 46 47 48 49 50

000
ASUS43 KFSD 092210
RWRSD

WEATHER ROUNDUP FOR SOUTH DAKOTA
NATIONAL WEATHER SERVICE SIOUX FALLS SD
500 PM CDT WED JUL 09 2014

NOTE: "FAIR" INDICATES FEW OR NO CLOUDS BELOW 12,000 FEET WITH NO
SIGNIFICANT WEATHER AND/OR OBSTRUCTIONS TO VISIBILITY.


SDZ001>005-009-010-012>017-092300-
NORTHWEST AND NORTH CENTRAL SOUTH DAKOTA

CITY           SKY/WX    TMP DP  RH WIND       PRES   REMARKS
BUFFALO          N/A     82  53  36 SE13G21   29.92F
FAITH            N/A     78  54  43 SE8       29.99F
MOBRIDGE       SUNNY     80  48  32 VRB6      29.97F HAZE
$$

SDZ012>016-024>037-041>051-057-063-072>074-092300-
SOUTHWEST AND SOUTH CENTRAL SOUTH DAKOTA

CITY           SKY/WX    TMP DP  RH WIND       PRES   REMARKS
RAPID CTY ARPT SUNNY     79  55  43 SE15G21   30.00F
PIERRE         MOSUNNY   80  56  43 SE9       29.96F
CUSTER         SUNNY     72  54  53 E13       30.12S
ELLSWORTH AFB  SUNNY     80  57  45 SE10G20   30.00F
PHILIP         MOSUNNY   81  53  37 SE13      29.98F
PINE RIDGE     SUNNY     81  61  50 E17G24    29.98S
WINNER         MOCLDY    73  56  54 S13       30.01F
$$

SDZ004>011-016>023-039-040-092300-
NORTHEAST SOUTH DAKOTA

CITY           SKY/WX    TMP DP  RH WIND       PRES   REMARKS
ABERDEEN       SUNNY     77  54  44 CALM      30.00F
WATERTOWN      MOSUNNY   76  51  41 VRB5      30.02F
SISSETON         N/A     78  53  41 NE5       29.99F
$$

SDZ017-020-022-023-036>040-048>070-092300-
SOUTHEAST SOUTH DAKOTA

CITY           SKY/WX    TMP DP  RH WIND       PRES   REMARKS
SIOUX FALLS    MOSUNNY   82  55  39 NW9       30.00S
HURON          SUNNY     82  55  39 E3        29.98F HAZE
CHAMBERLAIN    MOSUNNY   81  58  44 S12G18    29.98F
MITCHELL       SUNNY     83  54  36 CALM      29.99S HAZE
YANKTON        SUNNY     82  57  42 SW3       30.00F
$$

ABBREVIATIONS USED IN REMARKS
   TC - TEMPERATURE IN CELSIUS
  WCI - WIND CHILL INDEX
   HX - HEAT INDEX
  VSB - VISIBILITY




USA.gov is the U.S. government's official web portal to all federal, state and local government web resources and services.